Tracking 29495 objects as of 7-Sep-2024
HD Live streaming from Space Station
objects crossing your sky now

FENGYUN 1C DEB

Track FENGYUN 1C DEB now!
10-day predictions


NORAD ID: 36687
Int'l Code: 1999-025DZH
Perigee: 820.3 km
Apogee: 954.7 km
Inclination: 98.7 °
Period: 102.6 minutes
Semi major axis: 7258 km
RCS: 0.0063 m2 (small)
Launch date: May 10, 1999
Source: People's Republic of China (PRC)
Launch site: Taiyaun Space Center, China (TSC)

Note: This is SATELLITE DEBRIS
Your satellite tracking list
Your tracking list is empty




NASA's NSSDC Master Catalog

Two Line Element Set (TLE):
1 36687U 99025DZH 24235.55786897  .00001481  00000-0  92924-3 0  9999
2 36687  98.7215 334.9706 0092574 164.1569 196.2529 14.03883191833584
Source of the keplerian elements: AFSPC